GW3577 Weather Reports


Display with metric or nautical units.
time (UTC)temp
F
wind
direction
speed
MPH
gust
MPH
rain 1hr
in
rain 24hr
in
rain mn
in
humidity
%
barometer
mb
20260831014522 78 311 0.0 0.0 0.00 0.00 0.00 70 1021.7
20260831014018 78 311 0.0 0.0 0.00 0.00 0.00 68 1021.7
20260831013514 79 311 0.0 0.0 0.00 0.00 0.00 68 1021.7
20260831013013 79 311 0.0 0.0 0.00 0.00 0.00 69 1021.3
20260831012508 79 311 0.0 0.0 0.00 0.00 0.00 69 1021.3
20260831012008 79 311 0.0 0.0 0.00 0.00 0.00 70 1021.3
20260831011502 80 338 1.0 4.0 0.00 0.00 0.00 66 1021.3
20260831010959 80 8 6.0 7.0 0.00 0.00 0.00 66 1021.3
20260831010458 80 51 0.0 3.0 0.00 0.00 0.00 67 1021.3
20260831005954 80 71 4.0 6.0 0.00 0.00 0.00 70 1021.0
20260831005450 81 82 3.0 5.0 0.00 0.00 0.00 67 1021.3
20260831004949 81 338 0.0 0.0 0.00 0.00 0.00 66 1021.0
20260831004446 81 338 3.0 5.0 0.00 0.00 0.00 66 1021.0
20260831003941 81 333 5.0 6.0 0.00 0.00 0.00 67 1021.0
20260831003437 80 330 7.0 11.0 0.00 0.00 0.00 68 1021.0
20260831002931 79 310 7.0 11.0 0.00 0.00 0.00 73 1021.0
20260831002430 79 319 3.0 5.0 0.00 0.00 0.00 76 1021.0
20260831001925 79 277 2.0 3.0 0.00 0.00 0.00 75 1021.0
20260831001420 79 277 2.0 4.0 0.00 0.00 0.00 75 1020.6
20260831000918 79 308 5.0 7.0 0.00 0.00 0.00 74 1020.6
20260831000413 80 309 4.0 5.0 0.00 0.00 0.00 74 1020.6
20260830235911 79 309 4.0 6.0 0.00 0.00 0.00 75 1020.6
20260830235406 79 309 4.0 5.0 0.00 0.00 0.00 76 1020.6
20260830234902 79 310 3.0 5.0 0.00 0.00 0.00 77 1020.6
20260830234357 80 225 0.0 0.0 0.00 0.00 0.00 77 1020.3
20260830233853 80 225 0.0 0.0 0.00 0.00 0.00 76 1020.6
20260830233348 80 225 0.0 0.0 0.00 0.00 0.00 73 1020.3
20260830232844 81 225 0.0 0.0 0.00 0.00 0.00 73 1020.6
20260830232339 81 225 0.0 0.0 0.00 0.00 0.00 72 1020.6
20260830231836 82 225 2.0 2.0 0.00 0.00 0.00 72 1020.6
20260830231336 83 225 0.0 2.0 0.00 0.00 0.00 65 1020.6
20260830230836 84 225 2.0 3.0 0.00 0.00 0.00 63 1020.6
20260830230331 85 225 2.0 3.0 0.00 0.00 0.00 61 1020.3
20260830225825 86 225 4.0 6.0 0.00 0.00 0.00 58 1020.6
20260830225321 86 225 3.0 4.0 0.00 0.00 0.00 59 1020.6
20260830224820 86 225 2.0 3.0 0.00 0.00 0.00 57 1020.6
20260830224315 86 233 5.0 6.0 0.00 0.00 0.00 58 1020.3
20260830223812 86 235 5.0 7.0 0.00 0.00 0.00 58 1020.3
20260830223308 87 239 4.0 6.0 0.00 0.00 0.00 58 1020.3
20260830222807 87 221 5.0 9.0 0.00 0.00 0.00 56 1020.3
20260830222306 87 247 5.0 7.0 0.00 0.00 0.00 56 1020.3
20260830221758 88 243 6.0 8.0 0.00 0.00 0.00 56 1020.3
20260830221255 88 246 3.0 4.0 0.00 0.00 0.00 55 1020.0
20260830220749 88 246 2.0 3.0 0.00 0.00 0.00 56 1020.3
20260830220248 88 217 7.0 10.0 0.00 0.00 0.00 56 1020.3
20260830215747 88 217 5.0 9.0 0.00 0.00 0.00 57 1020.0
20260830215242 88 262 6.0 8.0 0.00 0.00 0.00 57 1020.0
20260830214737 88 227 5.0 7.0 0.00 0.00 0.00 56 1020.3
20260830214237 89 231 7.0 9.0 0.00 0.00 0.00 55 1020.3
20260830213736 88 174 4.0 8.0 0.00 0.00 0.00 55 1020.0
20260830213231 88 243 0.0 2.0 0.00 0.00 0.00 56 1020.0
20260830212727 89 178 4.0 6.0 0.00 0.00 0.00 55 1020.0
20260830212223 89 179 3.0 5.0 0.00 0.00 0.00 55 1020.0
20260830211718 89 248 0.0 2.0 0.00 0.00 0.00 55 1020.0
20260830211217 89 234 7.0 9.0 0.00 0.00 0.00 55 1020.0
20260830210713 89 251 8.0 10.0 0.00 0.00 0.00 54 1020.0
20260830210212 89 247 7.0 10.0 0.00 0.00 0.00 54 1020.3
20260830205709 89 222 2.0 4.0 0.00 0.00 0.00 55 1020.3
20260830205205 89 202 4.0 7.0 0.00 0.00 0.00 54 1020.0
20260830204704 90 188 3.0 7.0 0.00 0.00 0.00 53 1020.0
20260830204203 90 224 2.0 4.0 0.00 0.00 0.00 55 1020.0
20260830203659 90 284 5.0 9.0 0.00 0.00 0.00 54 1020.0
20260830203154 89 247 6.0 9.0 0.00 0.00 0.00 54 1020.0
20260830202654 90 255 8.0 10.0 0.00 0.00 0.00 53 1020.0
20260830202149 91 159 4.0 8.0 0.00 0.00 0.00 54 1020.0
20260830201643 90 221 2.0 7.0 0.00 0.00 0.00 54 1020.0
20260830201138 90 210 5.0 6.0 0.00 0.00 0.00 55 1020.0
20260830200633 90 210 6.0 9.0 0.00 0.00 0.00 54 1020.0
20260830200133 90 233 7.0 11.0 0.00 0.00 0.00 55 1020.0
20260830195628 90 167 1.0 4.0 0.00 0.00 0.00 54 1020.0
20260830195126 90 171 2.0 5.0 0.00 0.00 0.00 54 1020.3
20260830194626 90 228 7.0 9.0 0.00 0.00 0.00 54 1020.3
20260830194120 89 173 3.0 6.0 0.00 0.00 0.00 53 1020.3
20260830193615 89 188 4.0 6.0 0.00 0.00 0.00 54 1020.3
20260830193109 89 174 4.0 8.0 0.00 0.00 0.00 55 1020.6
20260830192600 89 242 8.0 12.0 0.00 0.00 0.00 56 1020.6
20260830192059 89 230 6.0 9.0 0.00 0.00 0.00 54 1020.6
20260830191554 89 195 6.0 13.0 0.00 0.00 0.00 55 1020.6
20260830191050 89 237 6.0 10.0 0.00 0.00 0.00 56 1020.6
20260830190545 89 179 4.0 8.0 0.00 0.00 0.00 55 1020.6
20260830190040 89 255 4.0 8.0 0.00 0.00 0.00 58 1021.0
20260830185533 89 241 7.0 11.0 0.00 0.00 0.00 56 1021.0
20260830185030 89 221 6.0 8.0 0.00 0.00 0.00 56 1021.0
20260830184528 89 234 5.0 8.0 0.00 0.00 0.00 57 1021.3
20260830184023 88 266 4.0 7.0 0.00 0.00 0.00 59 1021.3
20260830183517 88 226 6.0 9.0 0.00 0.00 0.00 58 1021.3
20260830183013 88 191 4.0 6.0 0.00 0.00 0.00 59 1021.3
20260830182508 87 252 7.0 11.0 0.00 0.00 0.00 60 1021.7
20260830182004 88 220 8.0 11.0 0.00 0.00 0.00 59 1021.7
20260830181500 88 227 5.0 8.0 0.00 0.00 0.00 61 1021.7
20260830180959 87 195 4.0 7.0 0.00 0.00 0.00 60 1021.7
20260830180454 87 161 4.0 7.0 0.00 0.00 0.00 61 1022.0
20260830175952 87 214 7.0 11.0 0.00 0.00 0.00 61 1022.0
20260830175452 87 221 4.0 7.0 0.00 0.00 0.00 62 1022.0
20260830174942 87 241 7.0 11.0 0.00 0.00 0.00 61 1022.3
20260830174438 86 231 8.0 14.0 0.00 0.00 0.00 61 1022.3
20260830173933 86 203 4.0 6.0 0.00 0.00 0.00 60 1022.3
20260830173429 86 222 2.0 6.0 0.00 0.00 0.00 62 1022.7
20260830172924 86 241 8.0 15.0 0.00 0.00 0.00 61 1022.7
20260830172421 86 216 4.0 5.0 0.00 0.00 0.00 63 1022.7
20260830171916 86 234 4.0 6.0 0.00 0.00 0.00 64 1023.0
20260830171411 86 171 4.0 8.0 0.00 0.00 0.00 63 1023.0
20260830170906 86 114 4.0 5.0 0.00 0.00 0.00 63 1023.0
20260830170405 86 213 3.0 5.0 0.00 0.00 0.00 65 1023.0
20260830165903 86 241 5.0 6.0 0.00 0.00 0.00 66 1023.0
20260830165400 85 233 2.0 3.0 0.00 0.00 0.00 66 1023.3
20260830164856 84 173 2.0 5.0 0.00 0.00 0.00 66 1023.3
20260830164352 85 233 5.0 8.0 0.00 0.00 0.00 66 1023.3
20260830163848 84 217 0.0 2.0 0.00 0.00 0.00 69 1023.7
20260830163343 84 227 6.0 7.0 0.00 0.00 0.00 70 1023.3
20260830162838 84 272 4.0 5.0 0.00 0.00 0.00 68 1024.1
20260830162334 83 179 3.0 7.0 0.00 0.00 0.00 70 1024.1
20260830161834 82 224 4.0 6.0 0.00 0.00 0.00 71 1024.1
20260830161333 82 243 3.0 7.0 0.00 0.00 0.00 72 1024.1
20260830160829 81 224 6.0 9.0 0.00 0.00 0.00 73 1024.5
20260830160324 81 232 5.0 7.0 0.00 0.00 0.00 74 1024.5
20260830155820 81 233 5.0 6.0 0.00 0.00 0.00 74 1024.1
20260830155316 82 248 5.0 6.0 0.00 0.00 0.00 72 1024.5
20260830154816 82 190 4.0 8.0 0.00 0.00 0.00 71 1023.7
20260830154312 83 235 4.0 5.0 0.00 0.00 0.00 72 1024.1
20260830153809 83 254 6.0 9.0 0.00 0.00 0.00 73 1023.7
20260830153304 82 234 7.0 9.0 0.00 0.00 0.00 74 1024.1
20260830152802 81 255 3.0 5.0 0.00 0.00 0.00 74 1024.1
20260830152257 82 244 6.0 9.0 0.00 0.00 0.00 73 1024.1
20260830151757 82 185 5.0 7.0 0.00 0.00 0.00 74 1024.1
20260830151256 81 210 2.0 7.0 0.00 0.00 0.00 74 1024.1
20260830150751 81 135 3.0 5.0 0.00 0.00 0.00 75 1024.1
20260830150251 80 177 3.0 6.0 0.00 0.00 0.00 76 1024.1
20260830145746 79 178 4.0 6.0 0.00 0.00 0.00 77 1024.5
20260830145241 80 173 3.0 5.0 0.00 0.00 0.00 76 1024.5
20260830144736 79 157 2.0 5.0 0.00 0.00 0.00 77 1024.5
20260830144232 80 174 2.0 4.0 0.00 0.00 0.00 77 1024.5
20260830143728 79 266 0.0 0.0 0.00 0.00 0.00 78 1024.5
20260830143226 79 239 5.0 7.0 0.00 0.00 0.00 77 1024.5
20260830142721 79 238 5.0 8.0 0.00 0.00 0.00 77 1024.1
20260830142216 79 169 3.0 9.0 0.00 0.00 0.00 80 1024.1
20260830141711 78 128 4.0 6.0 0.00 0.00 0.00 83 1024.1
20260830141206 77 213 2.0 4.0 0.00 0.00 0.00 85 1024.5
20260830140701 77 112 3.0 4.0 0.00 0.00 0.00 85 1024.5
20260830140156 77 257 0.0 0.0 0.00 0.00 0.00 84 1024.5
20260830135651 78 257 3.0 6.0 0.00 0.00 0.00 85 1024.5
20260830135146 77 188 0.0 2.0 0.00 0.00 0.00 85 1024.5
20260830134642 77 188 0.0 0.0 0.00 0.00 0.00 87 1024.5
20260830134137 76 188 1.0 2.0 0.00 0.00 0.00 87 1024.5
20260830133633 75 188 0.0 2.0 0.00 0.00 0.00 89 1024.8
20260830133128 74 285 0.0 0.0 0.00 0.00 0.00 91 1024.8
20260830132624 74 310 0.0 0.0 0.00 0.00 0.00 92 1024.8
20260830132120 73 310 0.0 0.0 0.00 0.00 0.00 92 1024.8
20260830131619 73 310 0.0 0.0 0.00 0.00 0.00 93 1025.1
20260830131114 72 310 0.0 0.0 0.00 0.00 0.00 94 1025.1
20260830130613 72 310 0.0 0.0 0.00 0.00 0.00 95 1025.1
20260830130108 72 310 0.0 0.0 0.00 0.00 0.00 95 1025.1
20260830125603 72 310 0.0 0.0 0.00 0.00 0.00 95 1025.1
20260830125102 72 310 0.0 0.0 0.00 0.00 0.00 95 1025.1
20260830124601 71 310 0.0 0.0 0.00 0.00 0.00 96 1025.1
20260830124057 71 310 0.0 0.0 0.00 0.00 0.00 97 1025.1
20260830123554 71 310 0.0 0.0 0.00 0.00 0.00 98 1025.1
20260830123049 71 310 0.0 0.0 0.00 0.00 0.00 98 1025.1
20260830122546 70 310 0.0 0.0 0.00 0.00 0.00 98 1025.1
20260830122042 70 310 0.0 0.0 0.00 0.00 0.00 98 1025.1
20260830121537 70 310 0.0 0.0 0.00 0.00 0.00 99 1025.1
20260830121036 70 310 0.0 0.0 0.00 0.00 0.00 99 1025.1
20260830120532 70 310 0.0 0.0 0.00 0.00 0.00 99 1025.1
20260830120029 69 310 0.0 0.0 0.00 0.00 0.00 99 1025.1
20260830115524 69 310 0.0 0.0 0.00 0.00 0.00 100 1025.1
20260830115024 69 310 0.0 0.0 0.00 0.00 0.00 100 1025.1
20260830114521 68 310 0.0 0.0 0.00 0.00 0.00 100 1025.1
20260830114021 68 310 0.0 0.0 0.00 0.00 0.00 100 1025.1
20260830113521 68 310 0.0 0.0 0.00 0.00 0.00 100 1025.1
20260830113017 68 310 0.0 0.0 0.00 0.00 0.00 99 1025.1
20260830112513 68 310 0.0 0.0 0.00 0.00 0.00 99 1024.8
20260830112009 68 310 0.0 0.0 0.00 0.00 0.00 99 1024.8
20260830111504 68 310 0.0 0.0 0.00 0.00 0.00 99 1024.8
20260830111000 68 310 0.0 0.0 0.00 0.00 0.00 99 1024.8
20260830110454 68 310 0.0 0.0 0.00 0.00 0.00 99 1024.8
20260830105954 68 310 0.0 0.0 0.00 0.00 0.00 99 1024.8
20260830105450 68 310 0.0 0.0 0.00 0.00 0.00 99 1024.8
20260830104946 68 310 0.0 0.0 0.00 0.00 0.00 99 1024.5
20260830104442 68 310 0.0 0.0 0.00 0.00 0.00 99 1024.5
20260830103937 68 310 0.0 0.0 0.00 0.00 0.00 99 1024.5
20260830103433 69 310 0.0 0.0 0.00 0.00 0.00 99 1024.5
20260830102931 69 310 0.0 0.0 0.00 0.00 0.00 99 1024.5
20260830102426 69 310 0.0 0.0 0.00 0.00 0.00 99 1024.5
20260830101923 69 310 0.0 0.0 0.00 0.00 0.00 99 1024.5
20260830101418 69 310 0.0 0.0 0.00 0.00 0.00 99 1024.5
20260830100917 69 310 0.0 0.0 0.00 0.00 0.00 99 1024.5
20260830100416 68 310 0.0 0.0 0.00 0.00 0.00 99 1024.5
20260830095915 68 310 0.0 0.0 0.00 0.00 0.00 99 1024.5
20260830095411 68 310 0.0 0.0 0.00 0.00 0.00 99 1024.5
20260830094908 68 310 0.0 0.0 0.00 0.00 0.00 99 1024.5
20260830094358 68 310 0.0 0.0 0.00 0.00 0.00 99 1024.5
20260830093848 68 310 0.0 0.0 0.00 0.00 0.00 99 1024.5
20260830093343 69 310 0.0 0.0 0.00 0.00 0.00 99 1024.1
20260830092838 69 310 0.0 0.0 0.00 0.00 0.00 99 1024.5
20260830092334 69 310 0.0 0.0 0.00 0.00 0.00 98 1024.1
20260830091831 69 310 0.0 0.0 0.00 0.00 0.00 98 1024.5
20260830091330 70 310 0.0 0.0 0.00 0.00 0.00 98 1024.1
20260830090829 70 310 0.0 0.0 0.00 0.00 0.00 98 1024.5
20260830090324 70 310 0.0 0.0 0.00 0.00 0.00 98 1024.5
20260830085824 70 310 0.0 0.0 0.00 0.00 0.00 97 1024.5
20260830085319 71 310 0.0 0.0 0.00 0.00 0.00 97 1024.5
20260830084815 71 310 0.0 0.0 0.00 0.00 0.00 97 1024.5
20260830084310 71 310 0.0 0.0 0.00 0.00 0.00 98 1024.1
20260830083805 71 310 0.0 0.0 0.00 0.00 0.00 98 1024.1
20260830083301 71 310 0.0 0.0 0.00 0.00 0.00 98 1024.1
20260830082800 71 310 0.0 0.0 0.00 0.00 0.00 97 1024.5
20260830082255 71 310 0.0 0.0 0.00 0.00 0.00 97 1024.5
20260830081751 71 310 0.0 0.0 0.00 0.00 0.00 97 1024.5
20260830081245 71 310 0.0 0.0 0.00 0.00 0.00 97 1024.5
20260830080739 71 310 0.0 0.0 0.00 0.00 0.00 98 1024.5
20260830080236 71 310 0.0 0.0 0.00 0.00 0.00 97 1024.5
20260830075735 71 310 0.0 0.0 0.00 0.00 0.00 97 1024.5
20260830075231 71 310 0.0 0.0 0.00 0.00 0.00 98 1024.5
20260830074726 71 310 0.0 0.0 0.00 0.00 0.00 98 1024.5
20260830074222 71 310 0.0 0.0 0.00 0.00 0.00 97 1024.5
20260830073718 71 310 0.0 0.0 0.00 0.00 0.00 97 1024.5
20260830073214 71 310 0.0 0.0 0.00 0.00 0.00 97 1024.5
20260830072713 71 310 0.0 0.0 0.00 0.00 0.00 97 1024.5
20260830072208 71 310 0.0 0.0 0.00 0.00 0.00 97 1024.5
20260830071703 71 310 0.0 0.0 0.00 0.00 0.00 97 1024.5
20260830071202 71 310 0.0 0.0 0.00 0.00 0.00 97 1024.5
20260830070657 71 310 0.0 0.0 0.00 0.00 0.00 97 1024.5
20260830070151 71 310 0.0 0.0 0.00 0.00 0.00 96 1024.8
20260830065644 71 310 0.0 0.0 0.00 0.00 0.00 96 1024.8
20260830065143 71 310 0.0 0.0 0.00 0.00 0.00 96 1024.8
20260830064642 72 310 0.0 0.0 0.00 0.00 0.00 96 1024.8
20260830064138 71 310 0.0 0.0 0.00 0.00 0.00 96 1024.8
20260830063637 72 310 0.0 0.0 0.00 0.00 0.00 96 1024.8
20260830063137 72 310 0.0 0.0 0.00 0.00 0.00 96 1024.8
20260830062632 72 310 0.0 0.0 0.00 0.00 0.00 95 1024.8
20260830062127 72 310 0.0 0.0 0.00 0.00 0.00 95 1025.1
20260830061621 72 310 0.0 0.0 0.00 0.00 0.00 95 1025.1
20260830061117 72 310 0.0 0.0 0.00 0.00 0.00 95 1025.1
20260830060614 72 310 0.0 0.0 0.00 0.00 0.00 95 1025.1
20260830060110 72 310 0.0 0.0 0.00 0.00 0.00 94 1025.1
20260830055605 72 310 0.0 0.0 0.00 0.00 0.00 94 1025.1
20260830055101 72 310 0.0 0.0 0.00 0.00 0.00 94 1025.1
20260830054556 72 310 0.0 0.0 0.00 0.00 0.00 94 1025.1
20260830054051 72 310 0.0 0.0 0.00 0.00 0.00 94 1025.1
20260830053546 72 310 0.0 0.0 0.00 0.00 0.00 94 1025.1
20260830053040 72 310 0.0 0.0 0.00 0.00 0.00 94 1025.1
20260830052536 72 310 0.0 0.0 0.00 0.00 0.00 94 1025.1
20260830052030 72 310 0.0 0.0 0.00 0.00 0.00 95 1025.1
20260830051525 72 310 0.0 0.0 0.00 0.00 0.00 94 1025.1
20260830051021 72 310 0.0 0.0 0.00 0.00 0.00 93 1025.1
20260830050515 72 310 0.0 0.0 0.00 0.00 0.00 93 1025.1
20260830050014 72 310 0.0 0.0 0.00 0.00 0.00 93 1025.1
20260830045513 72 310 0.0 1.0 0.00 0.00 0.00 93 1025.1
20260830045008 72 310 0.0 4.0 0.00 0.00 0.00 94 1025.1
20260830044457 72 310 0.0 0.0 0.00 0.00 0.00 93 1025.1
20260830043952 72 310 0.0 0.0 0.00 0.00 0.00 93 1025.1
20260830043446 72 310 2.0 4.0 0.00 0.00 0.00 93 1025.1
20260830042944 72 310 0.0 0.0 0.00 0.00 0.00 92 1025.1
20260830042439 72 310 0.0 0.0 0.00 0.00 0.00 92 1025.1
20260830041938 72 310 0.0 0.0 0.00 0.00 0.00 93 1025.1
20260830041437 72 310 0.0 0.0 0.00 0.00 0.00 93 1025.1
20260830040932 72 310 0.0 2.0 0.00 0.00 0.00 93 1025.1
20260830040428 72 310 0.0 0.0 0.00 0.00 0.00 93 1025.1
20260830035927 72 310 0.0 2.0 0.00 0.07 0.07 93 1025.1
20260830035426 72 310 0.0 0.0 0.00 0.07 0.07 93 1025.1
20260830034922 72 310 0.0 0.0 0.00 0.07 0.07 92 1025.1
20260830034417 72 310 0.0 0.0 0.00 0.07 0.07 92 1025.1
20260830033912 73 310 0.0 0.0 0.00 0.07 0.07 92 1025.1
20260830033407 73 310 0.0 0.0 0.00 0.07 0.07 92 1024.8
20260830032902 73 310 0.0 0.0 0.00 0.07 0.07 91 1024.8
20260830032401 73 310 0.0 0.0 0.00 0.07 0.07 91 1024.8
20260830031857 73 310 0.0 0.0 0.00 0.07 0.07 90 1024.8
20260830031352 73 310 0.0 0.0 0.00 0.07 0.07 90 1024.8
20260830030847 73 310 0.0 0.0 0.00 0.07 0.07 90 1024.8
20260830030343 73 310 1.0 3.0 0.00 0.07 0.07 90 1024.8
20260830025843 73 310 0.0 3.0 0.00 0.07 0.07 89 1024.5
20260830025342 73 310 0.0 0.0 0.00 0.07 0.07 89 1024.8
20260830024842 73 310 0.0 0.0 0.00 0.07 0.07 89 1024.8
20260830024338 73 310 0.0 0.0 0.00 0.07 0.07 89 1024.8
20260830023834 72 310 0.0 0.0 0.00 0.07 0.07 89 1024.8
20260830023334 72 310 0.0 3.0 0.00 0.07 0.07 89 1024.8
20260830022833 72 310 1.0 4.0 0.00 0.07 0.07 89 1024.8
20260830022328 72 310 0.0 0.0 0.00 0.07 0.07 89 1024.8
20260830021828 72 310 0.0 3.0 0.00 0.07 0.07 89 1024.8
20260830021323 72 310 0.0 0.0 0.00 0.07 0.07 89 1024.8
20260830020823 73 310 0.0 0.0 0.00 0.07 0.07 89 1024.8
20260830020318 73 310 0.0 3.0 0.00 0.07 0.07 89 1024.8
20260830015812 73 310 0.0 0.0 0.00 0.07 0.07 89 1024.8
20260830015307 73 310 1.0 3.0 0.00 0.07 0.07 89 1024.8
20260830014802 73 310 0.0 0.0 0.00 0.07 0.07 88 1024.8